Location: Baia Mare
(47.6567°N, 23.5850°E)
Time: 01:53:20
(UTC+03:00)

ISS - Pass Details

Date: 06 June 2018
Orbit: 402 x 406 km, 51.6° (Epoch: 21 June)

Event Time Altitude Azimuth Distance (km) Brightness Sun altitude
Rises 22:12:45 0° 290° (WNW) 2,324 1.3 -7.5°
Reaches altitude 10° 22:14:59 10° 279° (W) 1,460 -0.1 -7.8°
Maximum altitude 22:17:52 29° 217° (SW) 779 -2.5 -8.1°
Enters shadow 22:20:37 11° 157° (SSE) 1,413 -1.7 -8.4°
